| time (UTC) | temp C | wind direction | speed KPH | gust KPH | rain 1hr cm | rain 24hr cm | rain mn cm | humidity % | barometer mb |
| 20260504194523 | 15 | 232 | 14.5 | 25.7 | 0.00 | 0.00 | 0.00 | 74 | 1017.1 |
| 20260504193026 | 15 | 218 | 17.7 | 32.2 | 0.00 | 0.00 | 0.00 | 74 | 1017.0 |
| 20260504191518 | 15 | 217 | 14.5 | 30.6 | 0.00 | 0.00 | 0.00 | 73 | 1017.0 |
| 20260504190020 | 15 | 211 | 16.1 | 32.2 | 0.00 | 0.00 | 0.00 | 72 | 1016.8 |
| 20260504184527 | 16 | 194 | 20.9 | 33.8 | 0.00 | 0.00 | 0.00 | 70 | 1016.6 |
| 20260504183026 | 16 | 196 | 16.1 | 29.0 | 0.00 | 0.00 | 0.00 | 70 | 1016.6 |
| 20260504181532 | 16 | 167 | 17.7 | 35.4 | 0.00 | 0.00 | 0.00 | 69 | 1016.6 |
| 20260504180016 | 16 | 223 | 19.3 | 32.2 | 0.00 | 0.00 | 0.00 | 69 | 1016.6 |
| 20260504174522 | 17 | 218 | 19.3 | 33.8 | 0.00 | 0.00 | 0.00 | 68 | 1016.6 |
| 20260504173023 | 17 | 238 | 16.1 | 30.6 | 0.00 | 0.00 | 0.00 | 65 | 1016.8 |
| 20260504171532 | 17 | 212 | 14.5 | 29.0 | 0.00 | 0.00 | 0.00 | 66 | 1017.0 |
| 20260504081535 | 15 | 262 | 8.0 | 12.9 | 0.00 | 0.00 | 0.00 | 80 | 1017.2 |
| 20260504050013 | 13 | 211 | 6.4 | 12.9 | 0.00 | 0.00 | 0.00 | 78 | 1015.6 |
| 20260504044522 | 13 | 210 | 6.4 | 12.9 | 0.00 | 0.00 | 0.00 | 78 | 1015.6 |
| 20260504043023 | 13 | 209 | 8.0 | 14.5 | 0.00 | 0.00 | 0.00 | 78 | 1015.5 |
| 20260504041527 | 13 | 225 | 4.8 | 16.1 | 0.00 | 0.00 | 0.00 | 77 | 1015.7 |
| 20260504040013 | 13 | 205 | 6.4 | 17.7 | 0.00 | 0.00 | 0.00 | 77 | 1015.6 |
| 20260504034523 | 13 | 209 | 8.0 | 17.7 | 0.00 | 0.00 | 0.00 | 77 | 1015.7 |
| 20260504033034 | 13 | 207 | 4.8 | 12.9 | 0.00 | 0.00 | 0.00 | 77 | 1015.7 |
| 20260504031529 | 13 | 223 | 6.4 | 16.1 | 0.00 | 0.00 | 0.00 | 76 | 1015.8 |
| 20260504030025 | 13 | 244 | 9.7 | 17.7 | 0.00 | 0.00 | 0.00 | 76 | 1015.8 |
| 20260504024533 | 13 | 220 | 6.4 | 14.5 | 0.00 | 0.00 | 0.00 | 77 | 1015.8 |
| 20260504023018 | 13 | 222 | 9.7 | 16.1 | 0.00 | 0.00 | 0.00 | 78 | 1015.7 |
| 20260504021521 | 13 | 212 | 9.7 | 14.5 | 0.00 | 0.00 | 0.00 | 78 | 1015.6 |
| 20260504020026 | 13 | 242 | 9.7 | 17.7 | 0.00 | 0.00 | 0.00 | 79 | 1015.8 |
| 20260504014510 | 13 | 238 | 9.7 | 17.7 | 0.00 | 0.00 | 0.00 | 78 | 1015.9 |
| 20260504013017 | 13 | 238 | 9.7 | 19.3 | 0.00 | 0.00 | 0.00 | 77 | 1015.9 |
| 20260504011523 | 13 | 238 | 11.3 | 17.7 | 0.00 | 0.00 | 0.00 | 77 | 1015.9 |
| 20260504010029 | 14 | 251 | 11.3 | 19.3 | 0.00 | 0.00 | 0.00 | 78 | 1016.1 |
| 20260504004538 | 14 | 237 | 12.9 | 22.5 | 0.00 | 0.00 | 0.00 | 78 | 1016.1 |
| 20260504003016 | 14 | 242 | 12.9 | 19.3 | 0.00 | 0.00 | 0.00 | 78 | 1016.2 |
| 20260504001517 | 14 | 221 | 12.9 | 20.9 | 0.00 | 0.00 | 0.00 | 79 | 1016.3 |
| 20260504000025 | 14 | 257 | 11.3 | 19.3 | 0.00 | 0.00 | 0.00 | 79 | 1016.3 |
| 20260503234528 | 14 | 234 | 14.5 | 20.9 | 0.00 | 0.00 | 0.00 | 78 | 1016.3 |
| 20260503233030 | 14 | 244 | 9.7 | 19.3 | 0.00 | 0.00 | 0.00 | 78 | 1016.4 |
| 20260503231516 | 14 | 229 | 11.3 | 20.9 | 0.00 | 0.00 | 0.00 | 79 | 1016.4 |
| 20260503230022 | 14 | 223 | 12.9 | 17.7 | 0.00 | 0.00 | 0.00 | 80 | 1016.2 |
| 20260503224527 | 15 | 223 | 16.1 | 20.9 | 0.00 | 0.00 | 0.00 | 81 | 1016.3 |
| 20260503223026 | 15 | 237 | 11.3 | 19.3 | 0.00 | 0.00 | 0.00 | 80 | 1016.2 |
| 20260503221528 | 15 | 218 | 14.5 | 20.9 | 0.00 | 0.00 | 0.00 | 80 | 1016.1 |
| 20260503220022 | 15 | 214 | 12.9 | 22.5 | 0.00 | 0.00 | 0.00 | 81 | 1016.1 |
| 20260503214525 | 15 | 186 | 11.3 | 22.5 | 0.00 | 0.00 | 0.00 | 82 | 1015.9 |
| 20260503213029 | 15 | 178 | 11.3 | 24.1 | 0.00 | 0.00 | 0.00 | 81 | 1015.9 |
| 20260503211536 | 15 | 215 | 12.9 | 22.5 | 0.00 | 0.00 | 0.00 | 81 | 1015.7 |
| 20260503210018 | 15 | 188 | 11.3 | 24.1 | 0.00 | 0.00 | 0.00 | 82 | 1015.5 |
| 20260503204521 | 15 | 219 | 12.9 | 22.5 | 0.00 | 0.00 | 0.00 | 83 | 1015.4 |
| 20260503203023 | 15 | 230 | 9.7 | 20.9 | 0.00 | 0.00 | 0.00 | 83 | 1015.2 |
| 20260503201525 | 15 | 227 | 8.0 | 19.3 | 0.00 | 0.00 | 0.00 | 82 | 1014.8 |
| 20260503200030 | 15 | 213 | 11.3 | 19.3 | 0.00 | 0.00 | 0.00 | 82 | 1014.8 |